Colorado Springs, CO

11:34 PM MST on December 10, 2017 (GMT -0700)
City Of Colorado Springs Municipal

Weather History for KCOS - April, 2013

Change the Weather History Date:

Saturday, April 27, 2013

  Actual Average Record
Temperature  
Mean Temperature 55 °F 50 °F  
Max Temperature 73 °F 63 °F 82 °F (1992)
Min Temperature 37 °F 37 °F 17 °F (1984)
Degree Days  
Heating Degree Days 10 15  
Month to date heating degree days 646 510  
Since 1 July heating degree days 5802 5878  
Cooling Degree Days 0 0  
Month to date cooling degree days 0 0  
Year to date cooling degree days 0 0  
Growing Degree Days 5 (Base 50)    
Moisture  
Dew Point 15 °F    
Average Humidity 31    
Maximum Humidity 53    
Minimum Humidity 8    
Precipitation  
Precipitation 0.00 in 0.06 in 1.55 in (1941)
Month to date precipitation 0.33 1.24  
Year to date precipitation 1.59 2.90  
Snow  
Snow 0.00 in 0.10 in 4.10 in (1957)
Month to date snowfall 3.6 4.5  
Since 1 July snowfall 27.8 36.6  
Snow Depth 0.00 in    
Sea Level Pressure  
Sea Level Pressure 30.05 in    
Wind  
Wind Speed 7 mph (North)    
Max Wind Speed 17 mph    
Max Gust Speed 25 mph    
Visibility 10 miles    
Events      
T = Trace of Precipitation, MM = Missing Value Source: NWS Daily Summary

Daily Weather History Graph

Daily Weather History Graph

Search for Another Location

Airport or City:

Trip Planner

Search our weather history database for the weather conditions in past years. The results will help you decide how hot, cold, wet, or windy it might be!

Date:

Astronomy

Apr. 27, 2013 Rise Set
Actual Time 6:05 AM MDT 7:47 PM MDT
Civil Twilight 5:37 AM MDT 8:16 PM MDT
Nautical Twilight 5:02 AM MDT 8:50 PM MDT
Astronomical Twilight 4:26 AM MDT 9:27 PM MDT
Moon 10:18 PM MDT (4/27) 7:27 AM MDT (4/27)
Length of Visible Light 14h 38m
Length of Day
13h 41m
Waning Gibbous, 95% of the Moon is Illuminated
Apr 27
Waning Gibbous
May 2
Last Quarter
May 9
New
May 17
First Quarter
May 24
Full

Hourly Weather History & Observations

Time (MDT) Temp. Windchill Dew Point Humidity Pressure Visibility Wind Dir Wind Speed Gust Speed Precip Events Conditions
12:54 AM 43.0 °F 40.3 °F 26.1 °F 51% 30.17 in 10.0 mi North 4.6 mph - N/A   Clear
1:54 AM 42.1 °F - 25.0 °F 51% 30.16 in 10.0 mi Calm Calm - N/A   Clear
2:54 AM 44.1 °F 42.5 °F 23.0 °F 43% 30.14 in 10.0 mi ESE 3.5 mph - N/A   Clear
3:54 AM 41.0 °F 37.1 °F 23.0 °F 49% 30.14 in 10.0 mi North 5.8 mph - N/A   Clear
4:54 AM 39.0 °F 34.8 °F 23.0 °F 53% 30.13 in 10.0 mi North 5.8 mph - N/A   Clear
5:54 AM 41.0 °F 37.1 °F 23.0 °F 49% 30.13 in 10.0 mi NNW 5.8 mph - N/A   Clear
6:54 AM 45.0 °F 41.2 °F 25.0 °F 46% 30.13 in 10.0 mi North 6.9 mph - N/A   Clear
7:54 AM 55.0 °F - 24.1 °F 30% 30.10 in 10.0 mi NNW 11.5 mph - N/A   Clear
8:54 AM 60.1 °F - 16.0 °F 18% 30.09 in 10.0 mi NW 11.5 mph - N/A   Clear
9:54 AM 64.0 °F - 9.0 °F 12% 30.09 in 10.0 mi North 9.2 mph 21.9 mph N/A   Clear
10:54 AM 66.0 °F - 7.0 °F 10% 30.05 in 10.0 mi Variable 6.9 mph 20.7 mph N/A   Partly Cloudy
11:54 AM 66.9 °F - 6.1 °F 9% 30.04 in 10.0 mi Variable 3.5 mph - N/A   Partly Cloudy
12:54 PM 66.9 °F - 7.0 °F 10% 30.06 in 10.0 mi SW 5.8 mph - N/A   Partly Cloudy
1:54 PM 70.0 °F - 7.0 °F 9% 30.02 in 10.0 mi WNW 8.1 mph 17.3 mph N/A   Partly Cloudy
2:54 PM 70.0 °F - 6.1 °F 8% 29.99 in 10.0 mi Calm Calm - N/A   Partly Cloudy
3:54 PM 71.1 °F - 6.1 °F 8% 29.97 in 10.0 mi WSW 12.7 mph 16.1 mph N/A   Partly Cloudy
4:54 PM 71.1 °F - 6.1 °F 8% 29.96 in 10.0 mi East 8.1 mph - N/A   Partly Cloudy
5:54 PM 70.0 °F - 7.0 °F 9% 29.96 in 10.0 mi East 5.8 mph - N/A   Partly Cloudy
6:54 PM 69.1 °F - 8.1 °F 9% 29.94 in 10.0 mi SE 5.8 mph - N/A   Clear
7:54 PM 62.1 °F - 10.9 °F 13% 29.94 in 10.0 mi East 8.1 mph - N/A   Clear
8:54 PM 57.0 °F - 12.9 °F 18% 29.96 in 10.0 mi ENE 8.1 mph - N/A   Clear
9:54 PM 50.0 °F - 17.1 °F 27% 30.00 in 10.0 mi NNE 8.1 mph - N/A   Clear
10:54 PM 55.9 °F - 16.0 °F 21% 29.96 in 10.0 mi NW 5.8 mph - N/A   Clear
11:54 PM 48.0 °F - 19.0 °F 32% 29.98 in 10.0 mi NNW 5.8 mph - N/A   Clear